Wind_Speed
17 18 18 18 18 19 18 18 18 18 19 18 18 18 16 16 14 13 14 12 14 12 11 8 8 6 8 6 12 3 11 10 20 19 21 18 18 17 14 15 13 16 8 7 10 12 12
17 18 18 18 19 19 19 19 19 19 19 19 19 19 18 16 15 14 13 13 13 11 10 8 6 12 2 8 1 6 8 14 23 24 22 21 16 16 12 11 14 9 10 14 9 10 14
17 18 18 19 20 20 19 20 20 20 21 20 20 20 19 18 16 14 13 13 9 13 10 8 5 11 2 10 2 7 3 14 21 24 18 21 11 13 6 6 11 18 14 12 9 9 5
17 17 18 20 20 21 21 21 21 21 21 22 21 20 19 18 16 14 13 6 6 9 8 6 6 5 5 3 6 6 4 12 14 19 17 16 9 6 9 13 9 9 12 9 8 11 10
15 17 18 19 20 21 21 22 22 23 23 22 21 20 18 17 16 15 8 4 4 1 3 6 9 3 5 2 5 7 9 12 17 15 15 10 13 6 8 14 10 12 11 17 10 12 8
16 17 18 18 19 21 22 23 23 23 23 23 21 19 17 14 14 11 4 1 5 6 7 6 4 1 7 0 1 6 9 15 16 15 12 13 11 10 12 14 15 16 20 15 13 11 12
15 17 18 19 19 21 22 24 25 25 23 23 20 17 15 13 12 7 2 3 3 4 7 5 3 3 1 2 6 6 12 19 11 16 12 17 15 18 21 22 17 14 15 15 10 6 12
15 16 18 20 21 22 23 24 26 27 26 22 20 17 12 13 13 5 4 3 6 5 6 15 8 7 4 1 4 8 17 11 14 17 18 14 20 19 17 17 18 13 15 14 9 6 10
14 16 18 20 22 23 24 25 26 27 27 24 21 15 13 9 3 1 2 5 6 7 5 4 12 14 6 8 4 15 17 12 17 19 21 17 15 19 18 16 17 16 16 13 8 9 7
15 17 18 20 22 24 25 25 25 27 27 25 21 13 9 7 0 3 1 3 5 6 5 7 5 4 7 6 5 12 17 9 8 19 18 16 17 16 15 18 18 18 16 13 13 14 9
15 16 18 20 22 23 25 26 25 26 27 26 19 12 4 1 2 4 4 6 6 4 4 2 4 2 3 9 5 7 17 6 12 11 15 11 16 16 21 22 21 18 12 11 14 15 12
14 16 19 20 21 24 25 26 26 26 25 24 16 6 4 3 1 4 7 8 4 5 3 3 3 4 6 12 3 5 10 6 5 11 13 17 3 16 18 18 18 8 9 7 8 11 14
13 15 18 20 22 24 26 27 27 27 24 16 10 5 2 3 4 7 7 3 5 5 3 3 1 4 9 11 9 8 13 17 11 10 14 15 17 8 13 17 17 17 14 6 7 8 13
14 16 18 20 22 24 26 27 27 28 25 12 7 5 6 4 6 7 4 4 6 4 2 2 2 4 6 7 13 11 5 16 20 16 7 15 12 19 15 19 14 23 21 9 12 13 14
14 16 18 20 22 24 26 28 28 28 25 9 5 4 4 2 4 3 4 6 5 4 3 5 8 9 11 9 4 6 14 6 9 19 8 9 16 15 18 17 18 19 23 21 20 14 8
13 16 18 20 21 24 25 27 29 30 23 5 2 5 3 4 1 3 5 8 4 2 5 4 6 2 8 2 4 9 7 6 9 14 15 4 6 9 15 18 17 21 14 17 11 7 11
13 15 18 20 21 24 25 27 29 31 18 3 2 3 3 1 2 4 6 6 4 3 2 4 8 8 7 7 5 3 4 4 10 9 17 7 11 6 8 17 22 15 14 14 14 14 13
12 14 16 19 22 24 26 27 29 31 17 5 2 3 2 1 5 3 6 4 4 6 4 6 7 13 11 10 5 6 6 7 2 2 5 11 3 12 16 6 8 8 20 21 8 20 17
12 14 16 18 20 23 25 27 28 30 18 6 2 2 1 2 4 5 4 7 4 7 8 4 5 5 6 7 6 9 6 3 1 3 3 3 4 4 4 3 4 10 16 13 22 10 17
12 14 15 18 19 22 24 26 29 30 17 2 3 3 3 3 2 6 7 7 5 2 5 5 7 5 9 11 10 5 4 1 3 4 7 1 3 5 5 2 3 12 18 17 14 11 16
12 13 15 16 18 20 23 26 29 30 14 2 2 1 2 1 3 5 3 5 9 7 4 4 5 8 8 5 9 12 12 4 4 1 2 2 6 9 13 7 2 6 18 22 16 21 14
10 13 14 16 17 19 22 25 28 32 11 4 4 3 1 2 3 5 4 4 6 5 4 5 8 10 8 13 12 14 14 7 8 1 2 2 3 5 5 5 5 5 9 13 23 21 19
10 11 14 14 16 18 20 22 24 28 15 6 3 1 3 4 2 3 2 2 2 2 6 7 8 8 11 11 11 11 10 8 7 7 3 3 3 2 3 2 2 6 14 14 10 17 12
10 11 13 14 15 17 18 19 20 20 18 7 5 4 3 2 4 3 2 3 8 9 11 9 9 11 5 9 12 14 14 15 14 15 12 8 5 3 4 1 6 2 3 4 6 4 5
8 10 11 12 14 14 17 16 16 15 13 8 5 4 3 4 3 8 5 5 9 8 11 12 11 10 8 9 7 8 7 8 10 19 14 12 8 4 4 7 8 3 2 1 3 3 4
7 9 10 12 13 14 15 14 15 14 11 7 2 4 3 4 1 3 5 3 5 7 10 6 3 8 4 4 7 7 8 13 4 3 7 7 8 6 4 6 8 5 3 3 3 5 4
7 10 11 12 14 13 14 14 14 13 10 7 3 1 3 4 1 1 3 4 2 4 5 9 6 6 6 7 11 12 14 9 7 6 6 6 6 13 11 7 1 3 4 5 5 1 5
7 9 12 12 13 14 14 16 14 13 11 5 2 3 3 3 2 3 2 4 3 3 4 7 6 4 6 7 7 9 10 6 3 2 3 7 6 6 7 7 11 6 3 3 3 4 8
7 10 11 13 14 15 15 16 14 13 11 9 3 3 3 4 3 1 5 4 4 2 3 2 6 7 3 4 4 4 4 1 2 6 2 3 3 2 3 3 3 5 3 2 5 8 9
Wind_Direction
11 10 9 3 4 359 358 356 352 351 345 341 336 332 329 326 325 319 314 306 305 298 298 287 285 216 161 206 252 339 324 186 187 189 195 193 196 199 208 206 176 227 132 103 110 95 85
12 11 7 4 2 357 357 353 350 348 343 340 336 331 325 322 317 315 308 305 299 289 279 269 274 193 267 242 23 323 327 179 185 188 194 194 198 204 224 219 195 112 135 123 138 122 131
12 10 7 4 1 355 355 352 348 346 341 339 335 330 324 318 315 311 306 300 294 293 277 248 231 185 272 243 356 310 317 186 185 187 191 198 212 194 143 113 114 139 126 130 136 140 125
11 7 7 4 0 356 352 352 348 345 341 337 335 331 325 319 314 309 302 285 277 280 272 230 194 181 256 240 269 285 196 171 186 190 199 197 217 193 218 118 145 184 172 173 163 174 161
13 8 6 4 360 356 352 351 347 346 342 338 336 332 328 321 316 309 292 260 275 196 162 167 145 169 256 256 243 198 175 176 171 181 203 183 193 153 143 173 175 194 209 217 167 198 157
9 8 5 3 358 356 354 351 347 347 342 339 336 332 330 324 319 303 274 235 95 110 130 134 113 182 238 182 156 166 182 171 168 167 171 191 194 191 198 203 206 199 225 202 192 190 198
10 5 2 358 356 356 355 350 347 345 344 342 338 336 332 330 317 292 355 141 175 168 205 214 191 258 43 88 151 187 174 173 183 179 184 192 199 209 203 212 228 227 212 224 135 161 201
10 3 359 356 355 354 356 353 348 345 344 345 341 336 330 321 312 265 292 257 36 351 271 224 241 257 236 260 165 166 167 175 186 189 196 186 215 210 218 218 233 244 231 215 113 173 226
5 2 360 356 354 353 354 356 351 347 345 344 346 340 334 319 252 177 346 72 357 351 259 173 227 235 233 206 219 181 193 209 199 200 200 205 216 222 218 215 222 226 230 197 198 170 233
1 0 359 357 354 354 354 356 355 350 346 345 351 351 351 70 79 170 230 328 323 327 270 147 192 202 190 226 230 191 200 191 210 212 202 233 219 215 214 223 212 223 225 229 161 173 223
358 360 358 357 356 354 354 354 356 354 348 343 349 349 12 36 3 202 337 312 311 254 278 106 144 80 175 202 117 185 200 207 213 210 200 214 217 202 211 213 211 233 211 215 181 212 227
359 359 358 357 357 353 354 354 355 354 350 343 343 359 30 7 278 293 316 313 264 232 237 136 129 196 187 212 182 138 183 240 290 234 213 242 242 219 220 222 221 146 130 140 205 234 245
359 360 359 356 356 355 353 354 352 352 349 341 335 314 323 321 338 318 317 247 251 248 116 137 192 202 227 201 206 202 193 205 206 204 218 229 222 225 228 214 214 177 174 186 214 213 238
359 358 358 357 356 355 353 352 352 350 347 332 318 295 292 255 303 318 259 245 258 58 302 34 262 236 233 229 224 208 276 218 221 231 265 216 219 204 202 211 191 198 196 204 217 229 240
357 357 357 358 357 356 353 351 351 349 346 332 318 285 272 296 302 306 252 241 310 11 352 318 279 253 236 229 250 253 219 230 227 214 219 222 232 191 198 199 187 206 216 219 258 266 267
352 357 356 357 357 356 355 352 351 349 347 342 307 270 257 313 271 233 238 259 294 326 325 279 282 286 277 147 243 196 187 211 219 223 239 259 269 205 187 209 211 226 208 213 229 223 230
358 357 356 355 357 356 356 354 352 350 353 356 240 246 108 307 237 214 242 256 301 276 297 287 286 279 269 290 235 255 306 258 211 216 213 193 220 178 173 206 202 205 215 212 229 232 243
358 356 358 357 356 356 356 356 355 353 359 16 279 250 49 290 230 202 255 308 7 275 229 281 280 272 256 267 266 248 241 219 190 355 269 194 247 219 208 214 296 241 211 207 212 215 233
358 356 356 358 357 357 356 356 356 355 357 324 277 313 203 262 262 234 230 273 264 272 270 276 274 264 294 268 257 248 283 33 196 210 238 26 225 198 184 216 221 213 225 244 226 246 233
358 359 356 357 356 358 357 357 357 355 351 325 285 243 161 220 315 292 299 277 264 214 276 276 284 273 278 273 259 275 267 176 221 228 238 193 236 288 283 348 307 206 206 214 225 224 228
351 354 356 357 356 357 359 358 358 358 354 336 350 71 4 266 184 278 267 285 280 287 218 257 252 255 285 278 287 266 274 320 230 281 256 232 264 226 252 247 300 297 219 210 209 219 210
359 355 352 355 355 358 1 2 1 2 16 44 335 318 194 286 286 254 207 240 265 281 256 254 261 291 278 270 266 290 311 303 277 52 240 191 275 343 278 223 222 256 277 253 219 219 235
348 350 351 353 355 358 0 3 6 6 23 42 30 356 289 130 211 251 286 300 294 337 266 277 301 292 279 294 322 308 299 278 263 281 246 250 276 264 274 12 241 255 236 217 234 226 235
348 355 348 352 351 355 359 2 4 10 23 26 8 302 281 270 248 264 291 285 285 287 273 288 288 282 339 319 305 273 260 258 254 245 240 247 226 236 281 196 244 17 9 330 266 42 91
346 351 349 353 351 347 352 356 1 2 7 11 5 330 314 281 308 267 271 288 293 269 272 280 289 299 322 296 277 266 241 251 250 238 229 226 231 234 235 226 315 200 81 334 199 155 119
344 349 347 347 346 347 346 353 354 349 351 346 351 353 309 297 123 19 296 301 305 303 293 251 305 314 278 261 245 242 244 255 214 217 221 231 235 226 183 232 237 43 72 7 286 249 158
339 349 350 351 344 341 341 343 342 338 339 322 305 291 284 276 94 259 298 322 318 279 273 294 333 304 233 249 252 253 255 272 257 233 184 191 198 220 226 242 133 21 356 319 187 59 119
352 355 347 343 340 338 339 338 335 335 328 310 312 219 288 274 275 214 226 262 235 240 280 348 305 194 266 248 260 256 245 244 284 360 308 214 199 202 218 222 244 5 274 242 56 96 119
338 345 342 341 341 339 340 335 333 333 316 288 261 215 242 245 356 271 259 257 248 293 304 262 305 309 326 303 355 321 261 288 328 249 171 239 346 356 7 31 35 23 7 330 305 114 104
Height
827 824 821 817 813 810 807 803 799 797 793 790 786 782 779 776 773 771 769 767 765 764 763 762 762 762 763 762 755 754 752 754 758 761 759 759 762 763 766 764 764 773 795 805 808 812 812
828 825 821 819 815 811 808 804 799 796 792 789 787 783 779 776 771 769 767 765 765 763 762 762 761 763 763 760 752 752 751 753 755 759 759 759 758 759 761 761 768 774 794 800 809 810 820
828 825 822 819 816 812 808 804 800 795 792 788 784 781 778 774 770 767 764 763 762 761 760 760 762 763 764 755 753 753 753 753 755 757 757 759 759 760 760 777 779 789 798 803 804 806 813
829 826 823 820 816 812 808 804 799 795 790 786 782 778 775 772 769 765 762 760 760 758 759 760 761 764 759 753 753 753 753 753 756 759 759 761 762 761 763 774 781 781 784 787 800 803 811
828 826 823 819 816 812 808 804 798 794 789 784 780 776 772 769 767 763 760 758 757 757 758 761 763 763 756 751 751 750 752 754 756 759 762 763 763 765 773 772 778 775 773 770 796 795 805
830 827 822 818 814 810 808 803 798 793 787 783 778 774 771 767 765 762 759 758 758 758 760 762 763 766 752 748 750 750 752 754 756 758 763 763 762 767 764 763 768 767 769 758 775 797 798
831 828 823 819 813 810 806 802 798 793 785 781 777 773 769 767 765 763 761 761 761 760 759 749 748 746 750 751 752 752 753 754 755 757 757 758 762 761 756 753 750 746 755 755 769 796 796
831 827 824 819 814 810 805 801 798 793 786 780 776 772 769 767 764 764 765 758 763 766 754 749 751 750 752 752 750 752 752 754 753 754 751 758 758 748 749 751 754 753 752 755 784 801 798
831 827 823 819 815 810 805 800 796 792 787 780 774 770 768 765 766 766 766 766 765 765 757 742 745 748 749 752 746 749 751 748 750 750 749 749 747 745 749 751 757 757 755 756 770 802 803
832 828 823 819 815 810 805 799 793 790 787 781 776 772 769 767 771 768 767 767 765 765 747 741 745 743 748 747 747 743 748 748 748 748 748 750 739 747 751 751 757 759 751 752 779 791 779
832 828 824 819 815 810 805 799 792 788 786 781 776 773 771 770 770 770 769 767 766 765 742 744 745 745 741 744 744 746 747 748 746 746 747 746 742 746 751 750 750 752 747 759 777 777 764
832 829 824 820 815 810 804 799 793 786 782 780 778 774 772 773 771 770 768 767 766 754 744 738 741 743 745 741 743 747 749 750 744 745 745 741 741 740 742 744 745 757 765 770 775 775 772
832 828 824 820 815 810 805 799 793 786 779 777 776 775 771 772 770 770 768 767 754 741 734 737 737 738 738 737 739 742 746 748 747 752 748 743 742 741 738 744 744 755 763 776 782 777 760
832 829 825 820 815 810 806 799 792 786 778 775 775 775 772 770 770 769 769 760 751 738 735 739 738 737 738 734 735 743 750 744 740 737 736 739 741 738 739 734 744 752 751 753 758 751 744
833 830 826 821 816 810 805 799 792 784 777 773 773 775 774 771 768 768 766 754 740 742 747 744 736 736 731 735 741 746 742 750 744 735 743 731 725 717 725 728 735 749 741 732 736 723 736
834 831 827 821 816 810 805 798 791 784 776 772 772 772 770 769 767 768 761 749 749 751 751 747 741 735 729 738 748 745 748 738 739 740 738 741 736 718 723 728 728 724 730 746 743 748 742
835 831 827 823 816 811 805 799 792 783 775 771 771 764 768 768 767 762 756 747 752 751 753 750 741 739 741 743 747 753 743 727 730 732 737 748 737 736 730 725 721 729 732 728 732 729 719
833 831 826 823 819 813 806 799 793 785 776 774 770 762 768 768 762 753 749 750 763 752 753 752 748 744 743 743 753 747 744 743 749 749 740 739 742 727 727 720 729 721 716 717 724 721 717
834 831 827 822 818 813 807 801 794 787 779 777 767 762 767 768 754 747 748 757 759 755 751 749 746 742 737 740 750 735 736 749 752 752 751 753 737 717 730 739 736 730 721 717 712 711 710
834 831 827 823 819 813 807 801 794 788 782 780 773 760 764 763 763 762 756 753 757 760 759 759 753 751 747 743 741 746 743 750 759 756 754 753 745 724 710 711 716 720 718 714 717 721 708
834 831 827 823 819 815 809 802 795 787 782 782 776 770 778 754 758 765 767 760 758 757 759 758 751 752 750 753 745 744 737 744 753 757 755 754 731 726 720 732 737 725 705 706 715 708 711
832 831 827 824 820 816 810 805 798 789 783 785 779 778 779 770 774 771 767 757 760 758 763 752 758 751 754 754 748 747 747 751 746 758 753 755 737 740 728 729 737 732 727 709 700 705 711
831 828 827 824 821 817 812 807 803 795 788 789 792 792 787 772 768 768 757 760 765 773 763 764 765 765 759 755 759 756 758 756 756 753 752 751 743 738 720 741 739 727 720 712 709 702 709
830 828 826 824 821 818 813 809 805 802 799 798 798 795 783 763 770 764 772 776 775 774 775 768 769 769 764 766 763 756 753 751 749 748 751 743 744 738 725 742 721 731 758 756 726 742 749
828 827 825 822 820 818 815 810 805 804 801 800 799 798 790 774 774 771 775 778 777 774 775 773 771 769 769 769 763 747 736 744 735 733 742 745 742 734 729 721 704 739 757 751 736 737 761
828 825 824 821 819 817 814 812 808 805 801 799 799 799 797 789 773 785 781 781 779 773 771 770 773 774 773 765 754 754 736 717 724 740 744 747 743 735 732 716 703 750 772 776 773 721 770
827 825 823 821 819 816 814 811 808 805 801 800 798 797 798 792 785 789 781 784 786 784 780 774 776 772 769 762 756 747 738 723 728 723 737 736 736 729 720 715 723 780 783 782 732 745 781
826 824 823 821 817 815 814 811 808 806 802 799 798 797 797 791 788 792 792 788 787 789 783 776 776 776 769 764 752 742 735 729 743 746 739 729 725 720 720 714 711 800 786 769 793 789 787
827 824 822 820 817 814 812 810 807 805 803 799 797 797 797 796 790 794 793 793 792 792 791 786 780 781 776 769 757 752 746 752 747 734 759 747 769 742 771 768 805 808 807 807 805 797 799